Location: Clarion
(42.7316°N, 93.7330°W)
Time: 09:49:11
(UTC+00:00)

Meteor 1-14 Rocket - Pass Details

Date: 22 April 2026
Orbit: 832 x 918 km, 81.3° (Epoch: 17 May)

Event Time Altitude Azimuth Distance (km) Brightness Sun altitude
Rises 08:13:40 0° 351° (N) 3,478 8.0 -28.5°
Reaches altitude 10° 08:16:09 10° 353° (N) 2,523 7.2 -28.3°
Maximum altitude 08:21:53 74° 79° (E) 892 4.3 -27.7°
Enters shadow 08:22:39 64° 133° (SE) 945 4.3 -27.6°
